BAW47C LEBL-EGLL

Flight info

Callsign BAW47C
Flight time N/A
Altitude 34000
Route NATPI DCT EVNAM DCT AGN DCT SECHE DCT UVELI DCT CNA DCT MANAK DCT EPAPU DCT RINSO DCT EKRAS DCT REVTU DCT BOLRO UP87 ROXOG
Aircraft A320/M-SDE3FGHIRWY/LB1

Departure

Time N/A
Airport Josep Tarradellas Barcelona-El Prat Airport (LEBL)

Arrival

Time 2026-05-05 12:45
Airport London Heathrow Airport (EGLL)
Time Latitude Longitude Altitude Speed Heading
2026-05-05 12:09 48.41241 -1.50546 33910 ft 459 kts 355°
2026-05-05 12:10 48.47593 -1.51686 33908 ft 460 kts 355°
2026-05-05 12:10 48.53951 -1.52840 33910 ft 461 kts 355°
2026-05-05 12:11 48.60325 -1.54003 33918 ft 461 kts 355°
2026-05-05 12:11 48.66698 -1.55169 33914 ft 462 kts 354°
2026-05-05 12:12 48.73083 -1.56342 33920 ft 463 kts 354°
2026-05-05 12:12 48.79480 -1.57522 33928 ft 463 kts 354°
2026-05-05 12:13 48.85886 -1.58718 33933 ft 464 kts 354°
2026-05-05 12:13 48.92253 -1.59902 33940 ft 464 kts 354°
2026-05-05 12:14 48.98705 -1.61084 33943 ft 464 kts 354°
2026-05-05 12:14 49.05074 -1.62261 33947 ft 464 kts 354°
2026-05-05 12:15 49.11475 -1.63453 33948 ft 463 kts 353°
2026-05-05 12:15 49.17881 -1.64646 33955 ft 463 kts 353°
2026-05-05 12:16 49.24277 -1.65843 33964 ft 463 kts 353°
2026-05-05 12:16 49.30672 -1.67044 33962 ft 463 kts 353°
2026-05-05 12:17 49.37054 -1.68242 33985 ft 462 kts 353°
2026-05-05 12:17 49.43426 -1.69441 33984 ft 460 kts 353°
2026-05-05 12:18 49.49771 -1.70648 33985 ft 459 kts 353°
2026-05-05 12:18 49.56112 -1.71853 33983 ft 458 kts 353°
2026-05-05 12:19 49.62462 -1.72325 33994 ft 457 kts
2026-05-05 12:19 49.68802 -1.71785 33991 ft 456 kts
2026-05-05 12:20 49.75130 -1.71243 33986 ft 455 kts
2026-05-05 12:20 49.81442 -1.70715 33960 ft 453 kts
2026-05-05 12:21 49.87693 -1.70192 33836 ft 449 kts
2026-05-05 12:21 49.90779 -1.69931 33274 ft 448 kts
2026-05-05 12:21 49.93875 -1.69673 32865 ft 444 kts
2026-05-05 12:22 49.96982 -1.69410 32433 ft 439 kts
2026-05-05 12:22 49.99964 -1.68936 32056 ft 435 kts 11°
2026-05-05 12:22 50.02869 -1.67728 31662 ft 430 kts 23°
2026-05-05 12:22 50.05596 -1.65861 31284 ft 427 kts 25°
2026-05-05 12:23 50.08308 -1.63984 30897 ft 425 kts 25°
2026-05-05 12:23 50.11008 -1.62126 30522 ft 423 kts 25°
2026-05-05 12:23 50.13650 -1.60305 30174 ft 421 kts 25°
2026-05-05 12:23 50.16319 -1.58461 29793 ft 418 kts 26°
2026-05-05 12:24 50.18969 -1.56617 29388 ft 416 kts 26°
2026-05-05 12:24 50.21604 -1.54770 28987 ft 414 kts 26°
2026-05-05 12:24 50.24221 -1.52930 28597 ft 411 kts 25°
2026-05-05 12:24 50.26815 -1.51101 28212 ft 408 kts 25°
2026-05-05 12:25 50.29390 -1.49282 27827 ft 405 kts 25°
2026-05-05 12:25 50.31947 -1.47482 27451 ft 402 kts 25°
2026-05-05 12:25 50.34492 -1.45694 27076 ft 399 kts 25°
2026-05-05 12:25 50.37016 -1.43919 26708 ft 396 kts 25°
2026-05-05 12:26 50.39518 -1.42157 26350 ft 393 kts 25°
2026-05-05 12:26 50.42005 -1.40403 25990 ft 391 kts 25°
2026-05-05 12:26 50.44479 -1.38656 25636 ft 389 kts 25°
2026-05-05 12:26 50.46940 -1.36912 25288 ft 388 kts 25°
2026-05-05 12:27 50.49393 -1.35168 24943 ft 385 kts 25°
2026-05-05 12:27 50.51827 -1.33436 24603 ft 384 kts 25°
2026-05-05 12:27 50.54250 -1.31712 24273 ft 381 kts 25°
2026-05-05 12:27 50.56661 -1.30002 23933 ft 379 kts 24°
2026-05-05 12:28 50.59055 -1.28298 23604 ft 377 kts 24°
2026-05-05 12:28 50.61429 -1.26603 23230 ft 373 kts 24°
2026-05-05 12:28 50.63785 -1.24919 22846 ft 370 kts 24°
2026-05-05 12:28 50.66122 -1.23248 22463 ft 368 kts 24°
2026-05-05 12:29 50.68453 -1.21579 22084 ft 367 kts 25°
2026-05-05 12:29 50.70769 -1.19917 21716 ft 364 kts 25°
2026-05-05 12:29 50.73067 -1.18267 21347 ft 361 kts 25°
2026-05-05 12:29 50.75345 -1.16633 20986 ft 359 kts 25°
2026-05-05 12:30 50.77609 -1.15009 20628 ft 356 kts 25°
2026-05-05 12:30 50.79856 -1.13397 20276 ft 353 kts 25°
2026-05-05 12:30 50.82080 -1.11802 19921 ft 350 kts 25°
2026-05-05 12:30 50.84294 -1.10212 19234 ft 348 kts 25°
2026-05-05 12:31 50.86485 -1.08635 18542 ft 343 kts 25°
2026-05-05 12:31 50.88641 -1.07079 17789 ft 339 kts 25°
2026-05-05 12:31 50.90776 -1.05538 16951 ft 336 kts 24°
2026-05-05 12:31 50.92893 -1.04009 16117 ft 334 kts 25°
2026-05-05 12:32 50.94951 -1.02354 15321 ft 329 kts 35°
2026-05-05 12:32 50.96640 -0.99967 14588 ft 324 kts 45°
2026-05-05 12:32 50.98210 -0.97443 13913 ft 318 kts 45°
2026-05-05 12:32 50.99737 -0.94985 13398 ft 307 kts 45°
2026-05-05 12:33 51.01224 -0.92583 12863 ft 303 kts 46°
2026-05-05 12:33 51.02697 -0.90199 12349 ft 303 kts 45°
2026-05-05 12:33 51.04180 -0.87793 11833 ft 306 kts 46°
2026-05-05 12:33 51.05675 -0.85366 11329 ft 308 kts 46°
2026-05-05 12:34 51.07182 -0.82923 10828 ft 310 kts 46°
2026-05-05 12:34 51.08695 -0.80468 10337 ft 312 kts 46°
2026-05-05 12:34 51.10214 -0.77992 9859 ft 313 kts 46°
2026-05-05 12:34 51.11741 -0.75502 9326 ft 315 kts 46°
2026-05-05 12:35 51.13264 -0.73019 8998 ft 309 kts 46°
2026-05-05 12:35 51.14723 -0.70641 8954 ft 289 kts 46°
2026-05-05 12:35 51.16109 -0.68381 8967 ft 283 kts 46°
2026-05-05 12:35 51.17477 -0.66142 8974 ft 281 kts 46°
2026-05-05 12:36 51.18842 -0.63908 8974 ft 281 kts 46°
2026-05-05 12:36 51.20207 -0.61676 8974 ft 281 kts 46°
2026-05-05 12:36 51.21573 -0.59437 8974 ft 281 kts 46°
2026-05-05 12:36 51.22933 -0.57202 8969 ft 282 kts 46°
2026-05-05 12:37 51.24299 -0.54954 8738 ft 283 kts 46°
2026-05-05 12:37 51.25667 -0.52704 8414 ft 280 kts 46°
2026-05-05 12:37 51.27084 -0.50633 8175 ft 276 kts 32°
2026-05-05 12:37 51.28877 -0.49671 7975 ft 274 kts
2026-05-05 12:38 51.30737 -0.50232 7966 ft 278 kts 335°
2026-05-05 12:38 51.32254 -0.52134 7969 ft 281 kts 308°
2026-05-05 12:38 51.33087 -0.54962 7972 ft 284 kts 285°
2026-05-05 12:38 51.33514 -0.58062 7733 ft 286 kts 282°
2026-05-05 12:39 51.33885 -0.61131 7392 ft 284 kts 281°
2026-05-05 12:39 51.34245 -0.64234 7044 ft 284 kts 281°
2026-05-05 12:39 51.34485 -0.66328 6814 ft 283 kts 281°
2026-05-05 12:39 51.34956 -0.70474 6350 ft 283 kts 281°
2026-05-05 12:40 51.35601 -0.73409 5982 ft 280 kts 304°
2026-05-05 12:40 51.36440 -0.74947 5742 ft 276 kts 323°
2026-05-05 12:40 51.38128 -0.76250 5444 ft 267 kts 352°
2026-05-05 12:40 51.39957 -0.76495 5143 ft 263 kts
2026-05-05 12:41 51.42372 -0.76559 4736 ft 261 kts
2026-05-05 12:41 51.44183 -0.76600 4342 ft 262 kts
2026-05-05 12:41 51.45989 -0.76640 3828 ft 257 kts
2026-05-05 12:41 51.47173 -0.76517 3548 ft 249 kts 14°
2026-05-05 12:42 51.48620 -0.75218 3269 ft 235 kts 50°
2026-05-05 12:42 51.49175 -0.72888 3068 ft 222 kts 90°
2026-05-05 12:42 51.48685 -0.70616 2814 ft 216 kts 120°
2026-05-05 12:42 51.47984 -0.68496 2551 ft 214 kts 105°
2026-05-05 12:43 51.47718 -0.66197 2287 ft 209 kts 91°
2026-05-05 12:43 51.47679 -0.63874 2008 ft 207 kts 87°
2026-05-05 12:43 51.47686 -0.61587 1766 ft 201 kts 86°
2026-05-05 12:43 51.47697 -0.59375 1473 ft 197 kts 87°
2026-05-05 12:44 51.47709 -0.57199 1193 ft 192 kts 87°
2026-05-05 12:44 51.47718 -0.55132 951 ft 176 kts 87°
2026-05-05 12:44 51.47726 -0.53284 725 ft 165 kts 86°
2026-05-05 12:44 51.47734 -0.51462 480 ft 159 kts 86°
2026-05-05 12:45 51.47746 -0.49683 248 ft 160 kts 85°
2026-05-05 12:45 51.47747 -0.47911 100 ft 157 kts 87°
2026-05-05 12:45 51.47764 -0.46438 89 ft 106 kts 85°
2026-05-05 12:45 51.47767 -0.45810 87 ft 35 kts 96°
2026-05-05 12:46 51.47751 -0.45546 86 ft 18 kts 105°
2026-05-05 12:46 51.47669 -0.45470 87 ft 9 kts 178°
2026-05-05 12:46 51.47634 -0.45468 86 ft 4 kts 181°
2026-05-05 12:46 51.47606 -0.45490 89 ft 6 kts 224°
2026-05-05 12:47 51.47596 -0.45560 86 ft 5 kts 270°
2026-05-05 12:47 51.47596 -0.45562 86 ft 0 kts 270°
2026-05-05 12:47 51.47596 -0.45614 86 ft 9 kts 270°
2026-05-05 12:47 51.47596 -0.45762 86 ft 17 kts 270°
2026-05-05 12:48 51.47595 -0.46001 90 ft 25 kts 270°
2026-05-05 12:48 51.47594 -0.46294 90 ft 27 kts 269°
2026-05-05 12:48 51.47593 -0.46612 86 ft 30 kts 269°
2026-05-05 12:48 51.47589 -0.46818 86 ft 14 kts 262°
2026-05-05 12:49 51.47582 -0.46993 90 ft 17 kts 271°
2026-05-05 12:49 51.47582 -0.47199 87 ft 20 kts 269°
2026-05-05 12:49 51.47582 -0.47437 90 ft 23 kts 270°
2026-05-05 12:49 51.47583 -0.47704 88 ft 25 kts 269°
2026-05-05 12:50 51.47578 -0.47915 89 ft 18 kts 268°
2026-05-05 12:50 51.47577 -0.48107 86 ft 16 kts 271°
2026-05-05 12:50 51.47578 -0.48300 90 ft 19 kts 268°
2026-05-05 12:50 51.47570 -0.48442 86 ft 10 kts 243°
2026-05-05 12:51 51.47500 -0.48476 86 ft 12 kts 180°
2026-05-05 12:51 51.47406 -0.48475 86 ft 15 kts 180°
2026-05-05 12:51 51.47296 -0.48474 86 ft 17 kts 179°
2026-05-05 12:51 51.47172 -0.48472 86 ft 19 kts 180°
2026-05-05 12:52 51.47035 -0.48470 86 ft 15 kts 179°
2026-05-05 12:52 51.46944 -0.48469 87 ft 14 kts 180°
2026-05-05 12:52 51.46882 -0.48498 87 ft 10 kts 234°
2026-05-05 12:52 51.46881 -0.48503 87 ft 0 kts 239°
2026-05-05 12:54 51.46878 -0.48556 86 ft 5 kts 268°
2026-05-05 12:54 51.46877 -0.48627 86 ft 9 kts 270°
2026-05-05 12:54 51.46880 -0.48698 86 ft 4 kts 292°
2026-05-05 12:55 51.46910 -0.48714 89 ft 6 kts 359°
2026-05-05 12:55 51.46931 -0.48715 88 ft 0 kts 358°